Race Results for
NORBA NCS #2 - Apine Valley
Lake Geneva, WI
(Event Information)
This is a non-competitive event
Cross Country on 06/16/2002

Note: Ranking points are NOT upgrade points. An explanation of ranking points can be found here.


Men - Junior - JR - JuniorX

 Place NameCity, StateTime USAC #BibTeam
1 John Devine   Dixon, IL1:41:10. 166980  637 
2 Aaron Bradford   Santa Cruz, CA1:43:32. 156335  1067 RAD RACING
3 Stefano Barberi   Newbury Park, CA1:47:10. 136696  993 
4 Brent Bookwalter   Asheville, NC1:47:37. 171977  1344 BALANCE BA
5 RYAN IDDINGS   1:47:59.  1070 RAD RACING
6 Samuel Benson   Sharon, VT1:50:58. 122425  662 TEAM BALAN
7 Brian Weldon   Avon, CT1:51:34. 159653  620 INDEPENDEN
8 David Timmons   Flagstaff, AZ1:51:49. 153514  664 RPM/YETI
9 Adam Snyder   Westminster, MA1:52:09. 122912  661 TEAM BALAN
10 Robbie Stone   Salt Lake City, UT1:53:09. 154910  1066 HGR/GIANT
11 Spencer Paxson   Bellingham, WA1:54:21. 152029  1069 
12 Anthony Fehr   Whittemore, IA1:54:55. 170615  627 GOPHER COL
13 Chris Kuhl   Dillsburg, PA1:55:32. 175354  634 GETTYSBURG
14 John Murphy   Horse Shoe, NC1:56:31. 153638  969 COLORADO A
15 Trevor Morman   Enumclaw, WA1:56:32. 149639  962 RADRACINGN
16 Zachary Davies   Boulder, CO1:56:47. 182034  1071 MAD CITY
17 Todd Henriksen   Xenia, OH1:57:04. 159980  1320 RPM/YETI
18 COLBY JESSET   Shelburne, VT1:57:06. 148158  1310 BLISS
19 Thomas Peterson   Bellevue, WA1:57:14. 130777  638 RAD RACING
20 Samuel Schultz   Missoula, MT1:57:23. 164788  642 NORTHERN R
21 Eli Owenby   Tucson, AZ1:58:15. 155281  976 TEAM NOVA
22 Tane Hunter   Las Cruces, NM1:58:31. 130676  641 
23 Eric Marrison   Colorado Spgs, CO1:58:37. 103174  774 FRONT RANG
24 Cohen Caswell   Center Harbor, NH1:58:46. 151703  1347 DEVO
25 Ethan Johnson   Durango, CO1:59:22. 152494  1108 MOOTS CYCL
26 Adam Childers   Little Rock, AR1:59:23. 159413  628 ORBEA
27 Tucker Thomas   Redmond, WA1:59:44. 162481  626 RAD RACING
28 DAVE RIEMERSMA   2:01:20.  876 PCW CYCLIN
29 CHRIS PUEHLER   2:01:34.  621 DEAN GRASS
30 Richie Tillotson   Atlanta, GA2:01:44. 146485  965 COLORADO A
31 Steve Ladd   Fort Collins, CO2:01:56. 166316  1073 ALGER SCHW
32 Logan Onken   Missoula, MT2:02:52. 162734  636 RPM/YETI
33 ROSS SCATCHARD   2:02:55.  1308 
34 MATT REICHEL   2:02:57.  632 
35 Collin Carbaugh   Sumner, WA2:04:34. 173745  629 
36 David Milne   2:04:42. 149711  624 DEAN BIKES
37 Nicholas McGowan   Greenville, NC2:04:49. 153803  625 BICYCLE WO
38 TIM JAHN   2:04:54.  1105 
39 COLE HOUSE   2:05:31.  1074 WHITE BROT
40 AARON POOL   2:05:53.  961 THE BIKE W
41 MICHAEL ANDERSON   2:06:26.  635 TEAM 2
42 Michael Lenas   St Petersburg, FL2:06:49. 154630  1186 TREK/JBL
43 JOHN STEVENS   2:06:52.  991 
44 ERIC JELLUM   2:07:05.  1107 SPECIALIZE
45 PETE HALL   2:08:11.  623 ALGER/CALE
46 Christopher Phillips   Morgantown, WV2:08:28. 178828  631 SRAM
47 Nicholas Payne   San Antonio, TX2:09:41. 118719  639 SOBE CANNO
48 JOHN WILLIAMS   2:10:06.  618 ST LOUIS C
49 DOMINIC VAN NIELEN   2:10:28.  973 CHAMPIONS
50 RYAN REED   2:11:32.  619 
51 ADAM BOONE   2:13:06.  633 
52 ANTHONY ETTMAYER   2:13:42.  1104 
53 JOHN FLANANGAN   Durango, CO2:17:16. 161358  1338 RPM YETI
54 Keaton Tucker   Seattle, WA2:17:41. 152053  1349 BALANCE BA
55 Chris Paulson   Albuquerque, NM2:19:38. 153649  622 
56 Jordan Carr   Gunnison, CO2:30:41. 170822  1106 KEGELS/TRE
57 CHARLES PATTERSON JR   Pittsburgh, PA2:36:01. 190870  764 PATTERSON
DNF James Pair   Marietta, GADNF 143635  967 INDEPENDEN
DNF Evan Anderson   Grass Valley, CADNF 140620  640 TEAM NSO
DNF Michael McClure   Ketchum, IDDNF 120469  1340 BALANCE BA
DNF PERRY PAOLINI   DNF  643 BALANCE BA
DNF BRANDON FAVIC   DNF  1270 MNJRC
DNF ADAM BIWAN   DNF  1072 PCW CYCLIN
DNF Rand Miller   San Francisco, CADNF 182990  1065 GARY FISHE
DNF Joseph Thompson   Durango, CODNF 185428  663 TEAM DEVO
DNF Adam Swartzbaugh   Rockport, MEDNF 149935  630 
DNF Daniel Fredrickson   Albuquerque, NMDNF 149575  1068 

Men - SM - Senior

 Place NameCity, StateTime USAC #BibTeam
1 Dana Weber   Aliso Viejo, CA1:42:37. 126922  214 TEAM DIABE
2 Brian Narum   Anoka, MN1:43:38. 80077  246 TREK
3 JOHN FOLEY   1:45:21.  210 BICYCLE AL
4 CHAJ BARRIOS   1:45:48.  234 GUATEMALA
5 Daniel Swanson   St Louis Park, MN1:46:01. 117942  247 NATURE VAL
6 JAY DUFFY   1:46:08.  219 SPEEDGOAT.
7 Anthony Slowinski   Louisville, KY1:46:14. 121030  230 TREK/JEFFE
8 Robert Scott   Wappingers Falls , NY1:46:26. 32000  250 SOBE/CANNO
9 Grant Berry   Durango, CO1:46:29. 148636  254 IONIC/CLIF
10 Justin Rinehart   Mankato, MN1:46:51. 149501  217 SOBE/HEADS
11 Ryan Pirtle   Saint Louis, MO1:46:55. 28222  252 DOG FISH
12 Troy Michaud   York, ME1:47:21. 92465  203 TREK NEW E
13 Charles Pendry   Raleigh, NC1:47:28. 106096  232 HIGHLANDS
14 Joseph Marshall   Denver, CO1:47:39. 101161  221 RITCHEY
16 Anastasio Flores   La Selva Beach, CA1:48:21. 11877  208 ABS/SANTA
17 Brian Schaning   Renton, WA1:48:40. 161933  222 PCW CYCLIN
18 Brian Eppen   Iowa City, IA1:48:57. 121702  249 SOBE/CANNO
19 Jesse Rients   Shakopee, MN1:49:26. 147524  241 PENN CYCLE
20 Everett Baker   1:49:48. 90759  233 HIGHLANDS
21 Mark Roebke   Avon, CO1:50:00. 30355  206 IONIC
22 Ryan Vaslet   Boulder, CO1:50:11. 104369  225 BRECKEN RI
23 Mitch Westall   Littleton, CO1:50:32. 37798  205 DEAN/DYNAT
24 EDWARD CECCOLINI III   Pompton Lakes, NJ1:50:48. 54209  245 WESTWOOD V
25 Daniel Corum   Winston Salem, NC1:50:54. 92797  238 SOBE CANNO
26 HAL CLARK   1:50:54.  253 BRECK BREW
27 DAVE PETERSON   1:51:17.  240 
28 JOSHUA SUEAD   Larkspur, CA1:51:45. 135947  244 
29 KRISTOPHER HOLDEN   1:52:03.  213 KONA/ BICY
30 Brad VanOrden   Prescott, AZ1:53:19. 140292  228 GIANT/DOME
31 Brandon Ott   Collegeville, PA1:53:23. 151613  220 TAILWIND B
32 JAY HENDERSON   1:53:30.  256 
33 DONALD SNOOP JR   Beverly, MA1:53:35. 82776  202 SOBE CANNO
34 SHANE BRESNYAN   1:54:02.  243 SOULCRAFT
35 Joshua Powers   Phoenix, AZ1:54:23. 91975  224 ADVENTURE
36 KEVIN CALDWELL   Lancaster, PA1:55:21. 583  215 VELO CLIPS
37 Sloane Anderson   Bend, OR1:55:22. 159947  201 GREGS CANN
38 David Binker   Tucson, AZ1:56:20. 166097  211 RITCHEY
39 Craig Wohlschlaeger   Montecito , CA1:56:56. 121452  248 BIG SHARK
40 Robert Cagle   Marietta, GA1:57:08. 137285  216 ATLANTA CY
41 Kip Biese   Colorado Springs, CO1:57:13. 92714  209 GIANT
42 Craig Sandstrom   Pocatello, ID1:58:33. 141472  204 IDAHO STAT
43 PAUL BENNETT   2:00:27.  226 TOKYO JOES
44 Brian Behrmann   Shrewsbury, NJ2:05:23. 93952  235 SOBE CANON
DNF Neil Davies   Missoula, MTDNF 172537  212 TEAM BIG S
DNF Trevor Krueger   Durango, CODNF 156437  265 DEAN TI/CH
DNF David Robinson   Bend, ORDNF 143711  242 
DNF Earl Bradley   Indialantic, FLDNF 133173  239 SOUTHEAST
DNF Frank Overton   Boulder, CODNF 117894  229 RITCHEY
DNF Jorel Hendershot   Mears, MIDNF 116140  218 SOBE/HEADS
DNF Brian Schworm   Morehead, KYDNF 104934  227 PEDAL POWE
DNF Jason Jablonski   Wenatchee, WADNF 98835  231 BOLLA/BIAN
DNF Jasen Thorpe   Emmaus, PADNF 35536  251 MTN BIKE M
DNF LADD MCCLAIN   DNF  207 GARY FISHR

Men - EX - Senior - 19-24

 Place NameCity, StateTime USAC #BibTeam
1 Thomas Turner   Canton, GA1:47:48. 103410  1079 SOBE/CANNO
2 MICHAEL WALEWSKI   1:48:30.  984 
3 Alex Hagman   Fort Collins, CO1:50:18. 173228  852 
4 ALEJANDRO SIGUERE   1:50:52.  827 BIKE CENTE
5 Nick Martin   Boulder, CO1:51:19. 140177  1078 TREK/VW RO
6 Daniel Cooley   Pasco, WA1:51:25. 115500  958 BOLLA/BIAN
7 Justin Scott   East Lyme, CT1:51:38. 140116  784 MOMDAD
8 CODY VANOVERBEKE   1:52:20.  834 
9 Christian Favata   Rosendale , NY1:52:43. 135665  799 TABLE ROCK
10 BRIAN BOS   1:54:48.  1369 SRAM
11 Lucas Livermon   Carrboro, NC1:55:07. 161552  506 TREK-GRASS
12 Andrew Wulfkuhle   Lancaster, PA1:55:16. 153981  500 WISSAHICKO
13 Travis Woodruff   Prescott, AZ1:56:51. 135975  1064 RIVERBROOK
14 Justin Becker   Loveland, OH1:56:51. 107839  838 BIOWHEELS
15 NATHAN RINGQUIST   1:57:13.  1323 HARPOON/RA
16 JUSTIN RUZICKA   1:57:34.  1313 BIKE LINE
17 ERIK KLAUSEN   1:57:44.  1075 PENN CYCLE
18 LINDEN KLEIN   1:58:11.  504 MADCITY CY
19 B Nejmanowski   St Louis, MO1:58:26. 172871  945 BIG SHARK
20 TODD FREIDINGER   1:58:38.  857 NCCS/TREK
21 Steven Carwile   Owings Mills, MD1:58:41. 149268  505 LINDSEY WI
22 JORDAN ROESSINGH   1:59:07.  822 
23 Scott Grosz   Madison, WI1:59:15. 185446  1345 
24 Jeffrey Kerkove   Eagle, CO1:59:30. 140406  507 IOWA CITY
25 ERICH PONATH   2:00:45.  1296 BACK DOOR
26 Christopher Wiggins   Terre Haute, IN2:02:17. 161262  783 TERRE HAUT
27 Joseph Saperstein   Boulder, CO2:04:01. 171671  503 COYOTE HIL
28 Matt Sutton   Park City, UT2:05:00. 169179  925 
29 Chris Fehr   Minneapolis, MN2:05:04. 170602  497 GOPHER COL
30 PETER SKELLENGER   2:07:45.  499 ARCADIA BR
31 Andy Schultz   Missoula, MT2:08:05. 172534  890 NORTHERN R
32 Jason Fryda   Boulder, CO2:08:14. 169457  874 PEDAL MORA
33 David Thompson   Roscoe, IL2:09:08. 153229  508 
34 THOMAS BENDER   2:09:58.  848 FORT RACIN
35 Seth Eckert   Oregon, WI2:10:19. 148803  1182 VW-PLATTVI
36 BRET GLEMBOCHI   2:12:20.  933 IS CORP
37 Matt Miller   Milwaukee, WI2:12:27. 185665  1076 UW-WHITEWA
38 Matthew Mollo   Ipswich, MA2:12:34. 161025  1080 TEAM JAMIS
39 MIKE SCHRODEN   2:12:52.  920 OUT N ABOU
40 ANDREW BETTINGER   2:13:03.  804 NOVA/IS CO
41 ERIC PERKINS   2:15:03.  972 CHAIN SMOK
42 Zachary Wentzel   Prompton, PA2:17:01. 189721  786 SPECILIZED
43 JOSEPH MEISER   2:19:16.  502 CALEDONIA
44 ALEX MEININGER   2:19:32.  1167 
45 BRIAN MARCINKIEWICZ   2:27:55.  887 PEDAL POWE
46 DAN TESS   2:32:11.  1295 BACK DOOR
47 KOVAS LAPSYS   3:34:43.  501 
DNF Brian Alfermann   Washington, MODNF 184145  943 STAGE 1/BI
DNF Matthew Funk   Vermilion, OHDNF 172063  1109 
DNF Benjamin Sullivan   Missoula, MTDNF 178006  509 BIG SKY CY
DNF Caleb McFadden   Perrysville, OHDNF 165987  1081 VELOX
DNF Matt Siebert   Augusta, MIDNF 165481  953 
DNF Mike Janssen   Utica, MIDNF 160460  1077 TEAM JESUS
DNF Jacob Stechmann   Chardon, OHDNF 133200  908 BIANCHI
DNF Daniel Adams   Nevada City, CADNF 129025  510 TEAM N.S.O
DNF Aaron Bolton   Columbia, MODNF 121069  1318 RITCHY/DIA

Men - EX - Senior - 25-29

 Place NameCity, StateTime USAC #BibTeam
1 JOHN ROWLEY   1:47:56.  1112 PCW CYCLIN
2 Luke Nelson   Anoka, MN1:47:58. 135538  816 LARSON CYC
3 Michael Telega   Los Angeles, CA1:48:48. 162569  788 KELLY BIKE
4 TIM NORRIE   1:50:11.  771 SALSA CYCL
5 Ryan Leech   State College, PA1:50:54. 20753  515 SPEEDGOAT
6 Eli Mercer   Fox Lake, IL1:52:13. 148150  922 GARYFISHER
7 CRAIG MANTHE   1:52:27.  990 
8 Tim Drankus   Sheboygan, WI1:54:22. 151397  516 ALTERRA CO
9 James Lennon   Plymouth, WI1:54:37. 143906  892 BACK DOOR
10 Ben Klimas   Parkersburg, WV1:55:21. 144474  1250 SPECIALIZE
11 Michael Kuhn   Bethlehem, PA1:55:42. 40845  517 PA PENSION
12 MATT LONG   1:55:47.  975 SOBE/CANNO
13 Daniel Eberhart   South Bend, IN1:56:44. 153247  512 SOBE CANNO
14 Frank Rowley   Channahon, IL1:56:59. 178739  1114 PCW CYCLIN
15 Chris Peariso   Amherst, WI1:58:51. 139566  805 NEENAH BIK
16 Chan Head   Salt Lake City, UT1:59:20. 140537  524 GUTHRIE BI
17 CHRISTOPHER PAGEL   1:59:26.  1116 BIKE HUB
18 ZEPPELIN TITTENSOR   1:59:28.  924 TEAM FLOWE
19 Jacob Prater   Maryville, TN1:59:35. 28614  978 GP ENTERPR
20 BEN LUND   2:00:50.  1117 
21 Maciej Nowak   Waukesha, WI2:04:09. 182256  934 
22 Paul Freiwald   Lake Forest, CA2:05:03. 12367  522 
23 William Hall   Orlando, FL2:06:01. 115828  1110 CES/SCHELL
24 NATHAN TOCK   2:06:01.  955 BACKDOOR B
25 ROB HOLDEN   2:06:40.  1082 MICHAELS C
26 JEFFREY GREENWOOD   2:07:26.  518 
27 Lee Venteicher   Decorah, IA2:10:24. 74475  523 MICHELIN
28 Mike Rucker   Cincinnati, OH2:10:26. 94464  966 
29 Mario Medina   Sussex, WI2:11:12. 181488  854 
30 John Spranger   Madison, WI2:12:24. 190206  1115 
31 ROB BRUGMAN   2:13:03.  1111 ALTERRA MT
32 Hayden Tarpley   Phoenix, AZ2:13:21. 154150  513 DERBY CITY
33 Alan Simons   Denver, CO2:13:37. 172439  1113 BIKESOURCE
34 ZACHARY STANFORD   2:13:44.  1085 
35 MARSHALL COLLEY   2:13:55.  511 TEAM REVOL
36 Mark Nagy   Cardiff, CA2:15:00. 174295  519 DOGFISH RA
37 Brad Dash   Geneva, IL2:25:23. 108382  776 SPIN DOCTO
38 RAMBOD FARD   2:46:54.  520 
DNF Mark Giganti   Clayton, INDNF 172317  1086 TREK/OAKLE
DNF James Holmes   Madison, WIDNF 155854  521 CANNONDALE
DNF Jason Comer   South Kortright, NYDNF 151126  800 TABLE ROCK
DNF Colby Moeller   Tucson, AZDNF 132047  1084 MAUMEE VAL
DNF Jeremey Rodriguez   Kenosha, WIDNF 117449  514 TREK SRAM
DNF David Bethea   South Daytona, FLDNF 3565  1232 PROFILE/FO
DNF MIKE PHILLIPS   DNF  1083 ALTERRA CO
DNF KEVIN KELLY   DNF  1337 SUBARU/GAR

Men - EX - Master - 30-34

 Place NameCity, StateTime USAC #BibTeam
1 SCOTT KYLANDER-JOHNSON   1:49:56.  536 SKI HUT/TR
2 Samuel Moore   Saint Louis, MO1:51:06. 77370  944 BIG SHARK
3 Roger Aspholm   Haworth, NJ1:51:27. 136195  531 WESTWOOOD
4 Robert Cotton   Ann Arbor, MI1:52:02. 190324  665 STRUCTURAL
5 Jerry Jayne   Thousand Oaks, CA1:53:07. 132960  544 AMGEN
6 Josh Barrett   Whitewater, WI1:55:25. 189760  1246 HAYES DISC
7 Ransom Weaver   Havertown, PA1:55:46. 142290  527 
8 JAMIE PARKER   1:56:50.  532 WHEELS IN
9 RICH ONEIL   1:56:51.  994 
10 E Christopher Lattimer   Boulder, CO1:56:55. 20477  538 LATTIMER E
11 Brett Malin   Vail, CO1:57:07. 161595  790 
12 Matthew Stewart   St.charles, IL1:57:17. 34141  1119 FOX RIVER
13 Patrick Bush   San Anselmo, CA1:57:53. 164281  541 TREK/CLIFB
14 JOHN ROKKE   1:57:55.  1089 TEAM SNORT
15 Thomas Archer   Howell, MI1:58:11. 153642  542 BELLS BEER
16 Albert Hall   Groton, MA1:59:25. 137428  982 REVOLUTION
17 Arlo Buijten   Davenport, CA1:59:27. 135615  778 TITUS-VSG
18 Matt Wolf   Salt Lake Cty, UT1:59:33. 93419  540 BIOGEN
19 JEFF MCNAMEE   2:00:15.  957 TEAM WISCO
20 JOE STEPHENS   2:00:55.  988 
21 Garth Prosser   Dublin, OH2:02:06. 28761  981 SOBE
22 Alexei Medvedev   Katonah, NY2:02:20. 101472  1339 BIKE BARN
23 DIRK RETTIG   2:02:27.  927 BONTRAGER
24 WILLIAM ERPEDLDING   Chesterfield, MO2:02:52. 85272  905 STALE/BIG
25 MIKE KELSALL   2:03:09.  861 CALUNET CI
26 John Parke   Westwood, NJ2:03:16. 86645  526 WESTWOOD V
27 Damion Hickman   San Juan, CA2:03:18. 16094  543 SIMPLY FIT
28 DAN CHEEVER   2:04:29.  985 
29 Chris Baker   Morgantown, WV2:04:45. 139227  529 WMW ADVENT
30 MICHAEL CHAVEZ   2:04:56.  1351 ALPINE CYC
31 Erick Marcheschi   Morgan Hill, CA2:05:17. 96065  797 MONGOOSE/H
33 Mark Olson   Hickory Corners, MI2:06:12. 140153  537 
34 GREG MUELLER   2:06:18.  828 BICYLE ACT
35 Jose Barraza   Chicago, IL2:06:37. 188356  530 
36 RICHARD DRESSEN   2:08:37.  902 NCVC
38 Sean Peck   Durango, CO2:09:12. 135664  811 GO JUS/3D
39 Dennis Ellington   Jonestown, TX2:09:57. 143427  980 ORTHOPEDIC
40 Steve Insley   Belding, MI2:11:47. 154492  528 KENTWOOD S
41 Christopher Nelson   Greenfield, OH2:12:54. 177130  792 MOUTIAN MA
42 Nate Perkins   Waukegan, IL2:13:51. 76150  935 
43 MATTHEW LARSEN   2:15:02.  891 
44 STEVEN FROST   2:15:07.  989 
45 BRENT PATTERSON   2:15:49.  1118 HAYES
46 DON HOFFMAN   2:19:41.  772 
47 Barry Blumenkemper   St Louis, MO2:25:29. 147995  782 SUNSET CYC
DNF Andrew Griffin   Coleman, WIDNF 187140  1248 STANDNN BI
DNF Lowell Johnson   Waterford, WIDNF 168345  1088 
DNF Eric Johnson   South Bend, INDNF 140686  491 
DNF Michael Hopper   Hamilton, OHDNF 115812  533 MTB CINCY
DNF David Kimble   Seattle, WADNF 83561  842 KHS
DNF JOHN GATTO   DNF  535 SCHWINN MI
DNF JUSTIN POKRIVKA   DNF  1087 GARY FISHE
DNF WESLEY PICOTTE   DNF  775 JIVEDOG IS
DNF BIL PFEFFENDORT   DNF  921 OUT EBOURT
DNF SCOTT MCCLAUCLAN   DNF  960 SRAM

Men - EX - Master - 35-39

 Place NameCity, StateTime USAC #BibTeam
1 Scott Fifield   Reno, NV1:52:14. 164563  556 RUDY PROJE
2 ANDREW EVANS   Helotes, TX1:55:38. 61754  1092 ASPEN BIKE
3 Greg Frozley   Colorado Springs, CO1:56:41. 12490  850 CTS
4 TERRY TINNEY   1:56:54.  546 TREK/RICHA
5 Mike Roberts   Wheaton, IL1:57:15. 134339  1252 MONGOOSE
6 Scott Cole   Stevens Point, WI1:57:55. 7340  1093 POINT PURS
8 Todd McFadden   Duluth, MN1:58:32. 134734  1120 TEAM METRI
9 ROB KELLEY   1:58:53.  553 FOX RIVER
10 CHRIS LOMBARDO   2:00:17.  1121 ACTIVE END
11 Anthony Anderson   Reno, NV2:00:28. 81585  1091 K2 BIKES
12 Thimistocles (Tim) Kakouris   Saint Louis, MO2:01:22. 56057  550 SOBE/CANNO
13 MICHAEL MADDEN   2:01:35.  911 TREK/NIGHT
14 Richard Noonan   Rochester Hills, MI2:02:02. 118365  1097 BELLS BEER
15 ANDREW GREGG   2:02:24.  1303 XXX RACING
16 David Harris   St George, UT2:02:37. 15187  555 GO JUS/ALL
17 John Finetto   Haworth, NJ2:02:38. 65188  551 
18 DAVID HAASE   2:03:02.  987 
19 Sean Coleman   Land O Lakes, FL2:03:04. 121299  1187 US COAST G
20 Jeff Morris   Golden, CO2:03:24. 161379  1096 IONIC CYCL
21 Todd Henson   Cincinnati, OH2:03:35. 151742  552 
22 Doug Foxworth   Rio Medina, TX2:03:54. 12179  1229 HILL COUNT
23 STEVE GAYNER   2:04:19.  257 
24 Ronald Famiglietti   Steamboat Springs, CO2:04:41. 172155  547 MOOTS CYCL
25 BOB WEINTZ   2:04:41.  937 RRB CYLE L
26 Camden Kirkpatrick   Clive, IA2:05:08. 154860  548 ALTERRA CO
27 Bruce Gustafson   Thousand Oaks, CA2:06:22. 86702  558 AMGEN CYCL
28 DARYLL MCKENZIE   2:07:35.  964 CO ALTITUD
29 TIM BOUNDY   2:07:39.  1302 ACTIVE END
30 Lonnie Kinkade   Colorado Springs, CO2:09:20. 19209  549 STAR TEXAS
31 Tyler Pilger   Denver, CO2:09:52. 56668  1336 SUBARU/GAR
32 BRIAN BURGNER   2:09:53.  963 WEST CHEST
33 Dave Eckel   Trevor, WI2:15:15. 122771  1304 ALBERTOS S
34 A Todd Walsworth   Michigan City, IN2:16:57. 37112  1094 BIKE STOP
35 DRU BITTNER   2:17:29.  899 
36 BRIAN BAUER   2:19:07.  554 TREK/OAKLE
37 Volker Orgeldinger   Denver, CO2:20:38. 149150  1095 TEAN REDHO
38 DAVID REDDINGTON   2:21:43.  926 WILLIAMSON
39 Mark Odendahl   Greenville, SC2:22:08. 85755  1122 
40 Michael Stanley   Evanston, IL2:27:39. 33828  777 ACTIVE END
41 BRIAN KEHRES   2:28:30.  859 PEDAL POWE
42 JAMES SLAUSON   2:37:50.  557 HILL COUNT
43 Mark Tipton   N. Hollywood, CA2:37:55. 170519  1090 BICYCLE JO
44 John Riedel   Plain City, OH2:47:06. 60626  1098 INDEPENDEN
45 LARRY SAUBER   2:58:47.  819 LARSON CYC
DNF Gregory Maness   Mason, OHDNF 176623  882 BIO WHEELS
DNF DAVID BELL   DNF  820 

Men - EX - Master - 40-44

 Place NameCity, StateTime USAC #BibTeam
1 MICHAEL SCANLON   1:53:58.  781 HUB OF ASP
2 John Matthews   Saint Louis, MO1:54:42. 22939  566 ST LOUIS C
3 Charles Miller   Cincinnati, OH1:54:45. 59393  881 BIO WHEELS
4 Brett Gabriel   Dallas, TX1:56:48. 12604  562 TREK/RICHA
5 Scott Tucker   Sausalito, CA1:57:55. 36030  983 CROW CYCLE
6 Jeffery Otto   Beaverton, OR1:59:25. 105304  1124 
7 Gregory Shimonek   Papillion, NE2:00:17. 102327  565 BENSON BIK
8 Randall Tinney   Santa Barbara, CA2:01:34. 35624  769 TREK/RICHA
9 JEFF SYMPSON   2:02:41.  1099 KEGELS
10 Nicholas Hancock   Huntington, IN2:02:48. 43830  563 
11 Marco Hellman   San Francisco, CA2:04:52. 123885  560 FROG & PEA
12 GARY ENGHOLM   2:05:39.  1126 ACTIVE END
13 Kory Nauta   Libertyville, IL2:06:32. 25749  936 SUNDANCE
14 MARK MCGEEN   2:08:37.  860 TEAM MAUK
15 Dave Gane   San Leandro, CA2:08:51. 12735  1100 SYCIP
16 Henderson (Henry) Mandrell   Blythewood, SC2:08:56. 89475  559 CYCLE CENT
17 JAMES SMITH   2:09:52.  843 WON A GO B
18 Steve Dressen   Steamboat Springs, CO2:10:14. 132388  561 
19 DAVID ANDERSON   Reno, NV2:10:50. 186148  1125 K2 BIKES
20 DAVID HARADEM   2:11:22.  564 
DNF James Sunderman   Huntington, INDNF 83361  666 
DNF E.J. SIGETY   DNF  567 SPEEDGOAT.
DNF Mike Jones   Kalamazoo, MIDNF 18223  1123 ARCADIA BR
DNF RANDY WARREN   DNF  992 

Men - EX - Master - 45-49

 Place NameCity, StateTime USAC #BibTeam
1 Ian Davidson   Clemson, SC1:59:47. 94785  568 SOBE CANNO
2 Robert Anderson   Mill Valley, CA2:00:22. 1688  571 TEAM CROW
3 John Barmettler   San Jose, CA2:03:52. 2610  572 SYCIP
4 Jeffrey Dean   Norman, OK2:04:39. 110324  875 MATHIS BRO
5 Bruce Muhlfeld   Calabasas, CA2:05:50. 68445  573 TEAM HELEN
6 Mark Virello   Boston, MA2:09:05. 171561  959 DAYTON CYC
7 Bruce Nelson   Eldridge, IA2:11:16. 25836  570 DBF
8 Jack Murbach   Hueytown, AL2:13:54. 25449  667 ELLSWORTH
9 Brian Rafferty   Mamaroneck, NY2:15:14. 169430  847 
10 Larry DeWitt   Colorado Spgs, CO2:18:59. 87451  569 PIKES PEAK
11 Jim Roegge   West Chester, OH2:20:54. 155830  912 TEAM DAYTO
12 DAVID PECK   2:30:41.  795 
DNF ROBERT GARNER   DNF  977 HOBBY RACE

Women - Junior - JR - JuniorX

 Place NameCity, StateTime USAC #BibTeam
1 LIZA WINNING   1:33:30.  1309 
2 Sabra Davison   Jericho, VT1:35:07. 173327  1130 TEAM DEVO
3 Molly Hummel   Durango, CO1:37:31. 103205  670 GOJUS/ALLT
4 Chenoah Hendershot   Mears, MI1:45:15. 174025  669 SOBE CANNO
5 Erin Easton   Monument, CO1:47:11. 181490  1131 
6 Holly Liske   Stanford, CA1:48:17. 190109  587 
7 Sheena Wieber   Flagstaff, AZ1:52:11. 167446  1165 NOVA
8 Kristina Henne   Park City, UT1:56:51. 163331  1132 MERCY CYCL
9 HILARY WRIGHT   1:57:52.  868 YOUNG RIDE
DNF Michele Gibson   Berkeley, CADNF 151470  586 TEAM NSO
DNF Thais da Silva   Glenmoore, PADNF 122125  588 WISSAHICKO

Women - EX - Senior - 19-24

 Place NameCity, StateTime USAC #BibTeam
1 Abigail Hippely   Santa Cruz, CA2:16:37. 184801  1133 MAVERICK A
2 LISA ROPKE   Canton, GA2:21:18. 172792  591 INDEPENDEN
3 Lisa Ducharme   Bozeman, MT2:22:11. 153626  974 
4 Caroline LaBarre   Tucson, AZ2:22:46. 167445  589 UNVERSITY
5 Amber Krieger   Cary, NC2:31:36. 169456  590 CYCLING SP
6 AMANDA MCKAY   2:35:20.  840 BIOWHEELS
7 Jennifer Hare   Westminster, CO2:40:09. 72949  968 DCO
DNF TIERRA VILLASENOR   DNF  893 INTENSE/OA

Women - EX - Senior - 25-29

 Place NameCity, StateTime USAC #BibTeam
1 ALICIA MAYER   Colorado Springs, CO2:14:06. 175005  600 
2 STEPHANIE MOATS LEIBKE   Shoreview, MN2:16:33. 151374  599 DOGFISH/TR
3 Susan Juedes   Madison, WI2:20:28. 169773  597 MONGOOSE
4 Annemarie Huisman   Incline Village, NV2:21:57. 154915  773 CYCLEPATHS
5 Shannon Holden   Spokane, WA2:23:21. 151124  598 BICYCLE BU
6 Jessica Runyon   Kings Beach, CA2:23:39. 112107  956 CYCLEPATHS
7 Jessica Davies   Missoula, MT2:26:31. 172119  594 TEAM BIG S
8 Melodie Metzger   Berkeley, CA2:27:25. 177985  1134 MISSING LI
9 Katherine Sherwin   Heber City, UT2:28:45. 173633  593 TREK/RESOR
10 Rachael Mirvish   Boulder, CO2:30:14. 128137  863 TREK ROCKY
11 SIMONE OTTO   2:30:38.  1135 MICHELIN
12 ALLISON CARTER   2:31:43.  970 COLORADO
13 Angela Alexander   Fraser, CO2:38:06. 173288  671 ICE BOX MO
14 DARCY CORNELL   Sturbridge, MA2:38:10. 175568  592 TEAM BICYC
15 Sherry Martin   East Lansing, MI2:40:35. 152561  1141 SUMMIT GIL
DNF Sigrid Tipton   N Hollywood, CADNF 181342  1136 SERIOUS CY
DNF Mayumi Swetland   Sparks, NVDNF 180253  954 BICYLCES J
DNF Nara McCasland   Colorado Springs, CODNF 165088  595 
DNF Melissa Stelter   Lexington, KYDNF 148291  596 PEDAL POWE
DNF GINA KENNY   DNF  1319 

Women - EX - Master - 30-34

 Place NameCity, StateTime USAC #BibTeam
1 Linda Gabor   Sarasota, FL2:08:10. 131862  1137 TREK/VW/JB
2 Sonya Swartzentruber   Park City, UT2:13:53. 132455  602 
3 Alisha Engel   San Luis Obispo, CA2:14:39. 10800  609 
4 Kristi Lewis   Durango, CO2:15:46. 21089  607 
5 Theresa Richardson   Davidsonville, MD2:20:41. 170227  1138 BIKE DOCTO
6 Rebecca Cleveland   Green Bay, WI2:21:37. 100571  605 SEVEN CYCL
7 Nichole Wangsgard   Cedar City, UT2:22:13. 100972  601 BICYCLE CE
8 Cheryl Olson   Delton, MI2:23:20. 140154  610 INDEPENDAN
9 Leesa Bolden   Austin, TX2:23:48. 142774  979 DRTHOPEDIC
10 Angela Graf   2:24:19. 91830  726 RPM CYCLIN
11 LINELL WRIGHT   Ringgold, GA2:29:11. 153532  603 TEAM PEGGY
12 Tammy Hottinger   Dover, AR2:30:32. 145314  1139 MERCY CYCL
13 Heather Convey   Chicago, IL2:41:25. 188228  606 XXX RACING
14 Angela White   Colorado Springs, CO2:42:32. 142550  672 JUST RIDIN
15 Carrie Cash   Saint Louis, MO2:45:19. 163561  971 
16 Paula Stewart   Reesville, OH2:48:26. 190225  897 WILMINGTON
17 Brooke Wilson   Morris Plains, NJ3:09:33. 161138  608 
DNF Christine Cunningham   Evanston, ILDNF 171014  1142 TURIN
DNF RENEE CALLAWAY   DNF  604 MAD TRAIL

Women - EX - Master - 35-39

 Place NameCity, StateTime USAC #BibTeam
1 Anne Grabowski   Minneapolis, MN2:18:29. 57292  613 PENN/NATUR
2 SAMANTHA KAPLAN   2:27:16.  615 
4 PAMELA PATTERSON   2:34:17.  614 HAYES DISC
5 MERRY GOURLEY   2:44:01.  611 AMGEN

Report missing or incorrect license numbers

Volkswagen
CUORESierra NevadaSpyBonk BreakerOSMOUSACDFShimano
UCI USA Cycling is the official governing body for all disciplines of competitive cycling in the United States. The 501c3, membership-based organization aims both to achieve sustained success in international cycling competition and to grow competitive cycling in America while delivering an exceptional customer experience.
View Children's Online Privacy Protection Policy
US Olympic Committee